"Pseudo-MPEC" for C0MG3X2

Created 2019 May 24 15:07:04 UT using Find_Orb

Click here for an explanation of pseudo-MPECs

 
 Astrometry: 
     C0MG3X2  C2019 05 13.33142 15 51 07.02 +29 20 43.7    ~5D8q 20.8 GVNEOCPG96
     C0MG3X2  C2019 05 13.33707 15 51 04.52 +29 20 06.4    ~5D8q 21.5 GVNEOCPG96
     C0MG3X2  C2019 05 13.34272 15 51 02.08 +29 19 28.9    ~5D8q 21.1 GVNEOCPG96
     C0MG3X2  C2019 05 13.34836 15 50 59.62 +29 18 50.9    ~5D8q 21.1 GVNEOCPG96
     C0MG3X2  C2019 05 13.44841 15 50 16.12 +29 07 39.5    ~5DBM 21.0 GVNEOCPI52
     C0MG3X2  C2019 05 13.45174 15 50 14.69 +29 07 17.5    ~5DBM 20.9 GVNEOCPI52
     C0MG3X2  C2019 05 13.45507 15 50 13.29 +29 06 55.2    ~5DBM 20.9 GVNEOCPI52
     C0MG3X2  C2019 05 13.45840 15 50 11.85 +29 06 32.6    ~5DBM 20.4 GVNEOCPI52
     C0MG3X2  C2019 05 14.16022015 45 30.95 +27 49 54.2    ~5E4b 20.6 GVNEOCPH01
     C0MG3X2  C2019 05 14.16731015 45 28.11 +27 49 09.0    ~5E4b 20.3 GVNEOCPH01
     C0MG3X2  C2019 05 14.17353815 45 25.64 +27 48 29.4    ~5E4b 20.5 GVNEOCPH01
     C0MG3X2 KC2019 05 14C%Kq4dAAstrometry?#4#a1Q)])5hJOOM+NyU!CjD;ojZ7/7%3x6H21
     C0MG3X2  C2019 05 14.18074815 45 22.76 +27 47 43.3    ~5E4b 20.7 GVNEOCPH01
     C0MG3X2 KC2019 05 14%t!b/D29M`Dredacted;!_S\C89o\s`Fdf3cV+BP,*:*p-W0QXI_H21
     C0MG3X2 KC2019 05 15.05619515 39 53.44 +26 15 35.4    ~5F37 20.6 GVNEOCPJ95
     C0MG3X2 KC2019 05 15.07955315 39 44.83 +26 13 10.3    ~5F37 20.4 GVNEOCPJ95
     C0MG3X2 KC2019 05 15.09130415 39 40.50 +26 11 58.1    ~5F37 20.4 GVNEOCPJ95
     C0MG3X2 KC2019 05 154_(4QA^4nclickD4Y0GBARK8?CLL]X3`=!FE6wAhereNe5ryn]Fj291
     C0MG3X2 KC2019 05 15$Rb)kdI4kOhN-!h$#4$mfEAQ4mQ)PQM.*68uT;cyj+MR-pVd*41p291
     C0MG3X2  C2019 05 15.25641 15 38 43.54 +25 55 14.4    ~5F6q 21.1 GVNEOCPI52
     C0MG3X2  C2019 05 15.26002 15 38 42.22 +25 54 51.5    ~5F6q 20.9 GVNEOCPI52
     C0MG3X2  C2019 05 15.26363 15 38 40.83 +25 54 30.3    ~5F6q 20.1 GVNEOCPI52
     C0MG3X2 KC2019 05 15Y,HHyS+**X84HPcWkLV6X^h?Tx]83n/FT1n-dy7nX*]ZZFksHp+,291
     C0MG3X2  C2019 05 15.26724 15 38 39.78 +25 54 13.4    ~5F6q       VNEOCPI52
     C0MG3X2  C2019 05 15.27130 15 38 38.09 +25 53 43.6    ~5F7M 20.4 GVNEOCPI52
     C0MG3X2  C2019 05 15.27297 15 38 37.55 +25 53 33.3    ~5F7M       VNEOCPI52
     C0MG3X2  C2019 05 16.31821 15 32 47.95 +24 09 47.6    ~5G8M       VNEOCPI52
     C0MG3X2  C2019 05 16.32057 15 32 47.08 +24 09 32.8    ~5G8M       VNEOCPI52
     C0MG3X2  C2019 05 16.32529 15 32 45.55 +24 09 06.7    ~5G8M 21.1 GVNEOCPI52
     C0MG3X2 pC2019 05 16^J:\aRI/;pcLdJjdb_vlB0B`;JV0:$$QeVtrJ]x5biSJfor(Op$9L01
     C0MG3X2 IC2019 05 16vF;7b?m)bA-m,G[jrrh-Z1:*9CT=\+dRBq5BUw=DJ4l_$dWGK8XeL01
     C0MG3X2 KC2019 05 16vr.Q5j\SB$YnmVIEs?iwT[\XE:%p,8[(0C3y4ISV'f$uBMtGc9!yL01
     C0MG3X2 pC2019 05 16PYxj9IPQ*2;(nI!L+hQZdXTZ%qNp$:oH-x8dS*d!4explanationL01
     C0MG3X2  C2019 05 23.20800615 05 40.30 +14 50 53.9    ~5N5q 20.9 GVNEOCPH01
     C0MG3X2  C2019 05 23.21339915 05 39.31 +14 50 32.2    ~5N5q 21.4 GVNEOCPH01
     C0MG3X2  C2019 05 23.22206215 05 37.75 +14 49 57.3    ~5N5q 21.1 GVNEOCPH01
     C0MG3X2  C2019 05 23.23073415 05 36.18 +14 49 22.5    ~5N5q 21.3 GVNEOCPH01
     C0MG3X2  C2019 05 24.38297 15 02 26.07 +13 34 16.5    ~5O9q 21.5 GVNEOCPI52
     C0MG3X2  C2019 05 24.38713 15 02 25.44 +13 34 00.2    ~5O9q 20.9 GVNEOCPI52
     C0MG3X2  C2019 05 24.39390 15 02 24.31 +13 33 35.1    ~5O9q 21.8 GVNEOCPI52
     C0MG3X2  C2019 05 24.39806 15 02 23.63 +13 33 17.9    ~5O9q 20.5 GVNEOCPI52

Station data:
(291) LPL/Spacewatch II  (N31.961669 W111.599905)  US/Arizona.  Observers J.
   V. Scotti, R. S. McMillan. 1.8-m f/2.7 reflector + CCD.
(G96) Mt. Lemmon Survey  (N32.442754 W110.788720)  US/Arizona.  Observers T.
   A. Pruyne, B. M. Africano, E. J. Christensen, G. A. Farneth, D. C. Fuls,
   A. R. Gibbs, A. D. Grauer, H. Groeller, J. A. Johnson, R. A. Kowalski, S.
   M. Larson, G. J. Leonard, R. L. Seaman, F. C. Shelly. 1.5-m reflector +
   10K CCD.
(H01) Magdalena Ridge Observatory, Socorro  (N33.984833 W107.189333)  US/New
   Mexico.  Observers W. H. Ryan, E. V. Ryan. Measurer W. H. Ryan. 2.4-m
   f/8.9 reflector + CCD.
(H21) Astronomical Research Observatory, Westfield  (N39.483057 W87.968270)
   US/Illinois. 0.76-m f/3.0 astrograph + CCD.
(I52) Steward Observatory, Mt. Lemmon Station  (N32.442547 W110.788920)
   US/Arizona.  Observers T. A. Pruyne, B. M. Africano, E. J. Christensen, G.
   A. Farneth, D. C. Fuls, A. R. Gibbs, A. D. Grauer, H. Groeller, J. A.
   Johnson, R. A. Kowalski, S. M. Larson, G. J. Leonard, R. L. Seaman, F. C.
   Shelly. 1.0-m reflector + CCD.
(J95) Great Shefford  (N51.474969 W1.447003)  UK.  Observer P. Birtwhistle.
   0.40-m f/6.0 Schmidt-Cassegrain + CCD.
(L01) Višnjan Observatory, Tičan  (N45.290900 E13.749300)  Croatia.
   Observers K. Korlević, E. Pettarin. Measurer E. Pettarin. 1.0-m f/2.9
   reflector + CCD.

Orbital elements:  C0MG3X2
   Perihelion 2019 Mar 11.470822 +/- 0.052 TT = 11:17:59 (JD 2458553.970822)
Epoch 2019 May 24.0 TT = JDT 2458627.5   Earth MOID: 0.1906   AutoNEOCP
M  38.32687071 +/- 0.19             (J2000 ecliptic)
n   0.52124709 +/- 0.00227          Peri.   18.03567 +/- 0.07
a   1.52911547 +/- 0.00444          Node    89.29958 +/- 0.07
e   0.7262416 +/- 0.00115           Incl.   14.49530 +/- 0.047
P   1.89/690.64d           H 22.0   G  0.15   U  8.7  
q 0.41860814 +/- 0.000531    Q 2.63962280 +/- 0.00935
From 41 observations 2019 May 13-24; mean residual 0".73
Residuals in arcseconds: 
190513 G96  .11+  .60-    190515 J95  .35+  .21+    190516 I52  .17-  .20-    
190513 G96  .16-  .09-    190515 J95  .21-  .24-    190516 L01  .24+  .24+    
190513 G96  .33+  .22+    190515 J95  .64-  .34+    190516 L01  .93+  .53-    
190513 G96  .48+  .02-    190515 291  .28+  .32-    190516 L01  .01+  .63-    
190513 I52  .03-  .31-    190515 291  .02+  .47-    190516 L01  .06+  .04+    
190513 I52  .02-  .06+    190515 I52  .25+  .04+    190523 H01  .12+  .04+    
190513 I52  .37+  .13+    190515 I52  .14+  .87-    190523 H01  .09-  .04+    
190513 I52  .22+  .10-    190515 I52  .91-  .08-    190523 H01  .02+  .01-    
190514 H01  .19-  .29-    190515 291  .18+  .07+    190523 H01  .00   .07+    
190514 H01  .33-  .27-    190515 I52  2.6+  5.0+    190524 I52  .25-  .33+    
190514 H01  .12-  .15-    190515 I52  .27-  .06-    190524 I52  .41+  .10-    
190514 H21  .07-  .02-    190515 I52  .63+  .18-    190524 I52  .07-  .62+    
190514 H01  .13-  .27-    190516 I52  .73+  .41-    190524 I52  .17-  .71-    
190514 H21  .03-  .10+    190516 I52  .52-  1.5-    

Ephemerides (geocentric):
Date (UTC) HH   RA              Dec         delta   r     elong  mag " sig PA
---- -- -- --  -------------   -----------  ------ ------ -----  --- ---- ---
2019 05 24 15  15 01 49.626   +13 19 12.31  .37227 1.3282 142.7 21.7 .194 126
2019 05 24 16  15 01 43.263   +13 16 36.32  .37278 1.3287 142.7 21.7 .200 127
2019 05 24 17  15 01 36.923   +13 14 00.66  .37329 1.3291 142.7 21.7 .206 127
2019 05 24 18  15 01 30.605   +13 11 25.32  .37380 1.3296 142.7 21.7 .213 127
2019 05 24 19  15 01 24.308   +13 08 50.32  .37432 1.3301 142.8 21.7 .219 128
2019 05 24 20  15 01 18.034   +13 06 15.66  .37483 1.3306 142.8 21.7 .226 128
2019 05 24 21  15 01 11.782   +13 03 41.31  .37534 1.3310 142.8 21.7 .232 128
2019 05 24 22  15 01 05.552   +13 01 07.30  .37585 1.3315 142.8 21.7 .239 128
2019 05 24 23  15 00 59.343   +12 58 33.62  .37637 1.3320 142.8 21.8 .246 128
2019 05 25 00  15 00 53.156   +12 56 00.26  .37688 1.3325 142.8 21.8 .253 129
2019 05 25 01  15 00 46.991   +12 53 27.23  .37740 1.3329 142.8 21.8 .259 129
2019 05 25 02  15 00 40.847   +12 50 54.52  .37791 1.3334 142.8 21.8 .266 129
2019 05 25 03  15 00 34.725   +12 48 22.14  .37843 1.3339 142.8 21.8 .273 129
2019 05 25 04  15 00 28.624   +12 45 50.07  .37895 1.3344 142.8 21.8 .280 129
2019 05 25 05  15 00 22.544   +12 43 18.33  .37946 1.3348 142.8 21.8 .287 129
2019 05 25 06  15 00 16.485   +12 40 46.92  .37998 1.3353 142.8 21.8 .294 130
2019 05 25 07  15 00 10.448   +12 38 15.82  .38050 1.3358 142.8 21.8 .301 130
2019 05 25 08  15 00 04.432   +12 35 45.04  .38101 1.3363 142.8 21.8 .308 130
2019 05 25 09  14 59 58.436   +12 33 14.58  .38153 1.3367 142.8 21.8 .315 130
2019 05 25 10  14 59 52.462   +12 30 44.44  .38205 1.3372 142.8 21.8 .322 130
2019 05 25 11  14 59 46.508   +12 28 14.61  .38257 1.3377 142.8 21.8 .330 130
2019 05 25 12  14 59 40.575   +12 25 45.10  .38309 1.3382 142.8 21.8 .337 130
2019 05 25 13  14 59 34.663   +12 23 15.91  .38361 1.3386 142.8 21.8 .344 131
2019 05 25 14  14 59 28.772   +12 20 47.03  .38413 1.3391 142.8 21.8 .352 131
2019 05 25 15  14 59 22.901   +12 18 18.46  .38465 1.3396 142.8 21.8 .359 131
2019 05 25 16  14 59 17.050   +12 15 50.21  .38517 1.3401 142.8 21.8 .366 131
2019 05 25 17  14 59 11.220   +12 13 22.26  .38569 1.3405 142.8 21.8 .374 131
2019 05 25 18  14 59 05.410   +12 10 54.63  .38622 1.3410 142.8 21.8 .382 131
2019 05 25 19  14 58 59.621   +12 08 27.31  .38674 1.3415 142.8 21.8 .389 131
2019 05 25 20  14 58 53.851   +12 06 00.29  .38726 1.3420 142.8 21.8 .397 131
2019 05 25 21  14 58 48.102   +12 03 33.59  .38778 1.3424 142.8 21.8 .405 131
2019 05 25 22  14 58 42.373   +12 01 07.19  .38831 1.3429 142.8 21.8 .412 131
2019 05 25 23  14 58 36.663   +11 58 41.09  .38883 1.3434 142.8 21.8 .420 132
2019 05 26 00  14 58 30.974   +11 56 15.31  .38936 1.3438 142.8 21.8 .428 132
2019 05 26 01  14 58 25.304   +11 53 49.82  .38988 1.3443 142.8 21.8 .436 132
2019 05 26 02  14 58 19.655   +11 51 24.65  .39041 1.3448 142.8 21.8 .444 132
2019 05 26 03  14 58 14.025   +11 48 59.77  .39093 1.3453 142.8 21.8 .452 132
2019 05 26 04  14 58 08.414   +11 46 35.19  .39146 1.3457 142.8 21.9 .460 132
2019 05 26 05  14 58 02.823   +11 44 10.92  .39198 1.3462 142.8 21.9 .468 132
2019 05 26 06  14 57 57.252   +11 41 46.95  .39251 1.3467 142.8 21.9 .476 132
2019 05 26 07  14 57 51.700   +11 39 23.28  .39304 1.3471 142.8 21.9 .484 132
2019 05 26 08  14 57 46.167   +11 36 59.90  .39357 1.3476 142.8 21.9 .492 132
2019 05 26 09  14 57 40.654   +11 34 36.82  .39409 1.3481 142.8 21.9 .500 132
2019 05 26 10  14 57 35.160   +11 32 14.04  .39462 1.3486 142.8 21.9 .509 132
2019 05 26 11  14 57 29.685   +11 29 51.56  .39515 1.3490 142.8 21.9 .517 132
2019 05 26 12  14 57 24.229   +11 27 29.37  .39568 1.3495 142.8 21.9 .525 132
2019 05 26 13  14 57 18.792   +11 25 07.48  .39621 1.3500 142.8 21.9 .534 132
2019 05 26 14  14 57 13.374   +11 22 45.88  .39674 1.3504 142.8 21.9 .542 132